STARLINK-1088 (44966 NORAD) Tracking and Keplerian Element Data

This shows tracking and keplerian element data for the satellite.

Feedback or suggestion? Click here.




ElementValue
Catalog44966
NameSTARLINK-1088
Epoch Orbit723
Epoch Day52.91667824
Epoch Year2020
RAAN168.8689
Inclination52.9958
Eccentricity0.0006757
Argument of Perigee2.8535
Mean Anonmoly31.6367
Mean Motion15.73196927
Decay Rate0.00014039
L11 44966U 20001BE 20052.91667824 .00014039 00000-0 10420-3 0 9991
L22 44966 52.9958 168.8689 0006757 2.8535 31.6367 15.73196927 7231

Live tracking and technical data element details for STARLINK-1088 (NORAD 44966). STARLINK-1088 can be tracked NOW for your location showing map with azimuth and elevation plus other details from your city location.

Track the satellite on the map from your city or location and see movement details for azimuth, elevation, latitude, longitude, range, height, and movement on the map or in text.







IsCatalogInMostPopularTable: catalog: 44966, numindb: 15
Update: records affected: 1



GetName: 44966 STARLINK-1088

Hit Count: updated at: Wed, 26 Feb 2020 16:29:55 GMT